Regional Weather Roundup
Issued by NWS

Home | Current Version | Previous Version | Text Only | Print | Product List | Glossary Off
Versions: 1 2 3 4 5 6 7 8 9 10 11 12 13 14 15 16 17 18 19 20 21 22 23 24 25 26 27 28 29 30 31 32 33 34 35 36 37 38 39 40 41 42 43 44 45 46 47 48 49 50

531
ASUS43 KLSX 061507
RWRMO

WEATHER SUMMARY FOR MISSOURI
NATIONAL WEATHER SERVICE SPRINGFIELD MO
900 AM CST TUE DEC 06 2016

NOTE: "FAIR" INDICATES FEW OR NO CLOUDS BELOW 12,000 FEET WITH NO
       SIGNIFICANT WEATHER AND/OR OBSTRUCTIONS TO VISIBILITY.
       CURRENT SKY AND/OR WEATHER CONDITIONS ARE NOT AVAILABLE FOR
       CHILLICOTHE AND FARMINGTON.

MOZ001>031-035>038-043-044-053-054-061600-
...NORTHERN AND WESTERN MISSOURI...

CITY           SKY/WX    TMP DP  RH WIND       PRES   REMARKS
KANSAS CTY INT MOSUNNY   32  16  51 NW16G30   30.00R WCI  21
KANSAS C DTWN  SUNNY     34  20  56 NW14      30.01R WCI  25
LEE`S SUMMIT   MOSUNNY   33  19  56 N23G29    29.99R WCI  21
ST JOSEPH      SUNNY     31  16  54 NW18G25   30.02R WCI  19
CHILLICOTHE      N/A     33  22  63 NW14G20   29.98R WCI  23
KIRKSVILLE     PTSUNNY   34  28  79 NW15      29.90R WCI  24

$$
MOZ066>068-077>081-088>096-101>105-061600-
...SOUTHWEST MISSOURI...

CITY           SKY/WX    TMP DP  RH WIND       PRES   REMARKS
SPRINGFIELD    CLOUDY    36  34  92 NW18      29.93R FOG     WCI  26
JOPLIN         CLOUDY    38  35  89 N13G24    30.01R WCI  30
BRANSON        CLOUDY    39  37  93 NW13      29.92R FOG

$$
MOZ032>034-039>042-045>050-055>058-069>072-061600-
...CENTRAL MISSOURI...

CITY           SKY/WX    TMP DP  RH WIND       PRES   REMARKS
COLUMBIA       FOG       32  32 100 NW13      29.90R VSB 3/4 WCI  22
JEFFERSON CITY CLOUDY    32  32 100 NW9       29.93R FOG     WCI  24
ROLLA          SNOW      34  34 100 NW16      29.87R VSB 1/4 WCI  24
SEDALIA        CLOUDY    36  32  85 NW18G29   29.96R WCI  26
WHITEMAN AFB   PTSUNNY   34  29  80 N16       29.95R WCI  24
OSAGE BEACH    CLOUDY    35  34  96 N10G16    29.94R FOG     WCI  27

$$
MOZ051-052-059>065-061600-
...EAST CENTRAL MISSOURI...

CITY           SKY/WX    TMP DP  RH WIND       PRES   REMARKS
ST LOUIS INTL  CLOUDY    40  33  76 NW14      29.85R
SPIRIT OF STL  CLOUDY    39  36  89 N9        29.86R
ST CHARLES     CLOUDY    38  35  89 NW12      29.85R

$$
MOZ072>076-082>087-097>100-106>115-061600-
...SOUTH CENTRAL AND SOUTHEAST MISSOURI...

CITY           SKY/WX    TMP DP  RH WIND       PRES   REMARKS
CAPE GIRARDEAU CLOUDY    41  37  86 N15       29.81R
FARMINGTON     CLOUDY    38  35  89 NW15      29.83R WCI  29
POPLAR BLUFF   CLOUDY    44  41  89 N7        29.81R
WEST PLAINS    MOSUNNY   43  37  79 N13G23    29.86R

$$



USA.gov is the U.S. government's official web portal to all federal, state and local government web resources and services.